Weather History for KBBW - September, 2013

Change the Weather History Date:

Sunday, September 22, 2013

  Actual Average Record
Temperature  
Mean Temperature 66 °F 59 °F  
Max Temperature 82 °F 74 °F 96 °F (2005)
Min Temperature 50 °F 45 °F 19 °F (1995)
Degree Days  
Heating Degree Days 0 7  
Month to date heating degree days 35 82  
Cooling Degree Days 1 1  
Month to date cooling degree days 121 58  
Year to date cooling degree days 807 754  
Growing Degree Days 17 (Base 50)    
Moisture  
Dew Point 51 °F    
Average Humidity 60    
Maximum Humidity 83    
Minimum Humidity 36    
Precipitation  
Precipitation 0.00 in 0.09 in 3.19 in (2010)
Sea Level Pressure  
Sea Level Pressure 29.69 in    
Wind  
Wind Speed 14 mph (SSE)    
Max Wind Speed 29 mph    
Max Gust Speed 39 mph    
Visibility 10 miles    
Events      
T = Trace of Precipitation, MM = Missing Value Source: NWS Daily Summary

Daily Weather History Graph

Daily Weather History Graph

Search for Another Location

Airport or City:

Trip Planner

Search our weather history database for the weather conditions in past years. The results will help you decide how hot, cold, wet, or windy it might be!

Date:

Astronomy

Sep. 22, 2013 Rise Set
Actual Time 7:26 AM CDT 7:35 PM CDT
Civil Twilight 6:58 AM CDT 8:02 PM CDT
Nautical Twilight 6:26 AM CDT 8:35 PM CDT
Astronomical Twilight 5:53 AM CDT 9:08 PM CDT
Moon 9:23 PM CDT (9/22) 10:51 AM CDT (9/22)
Length of Visible Light 13h 04m
Length of Day
12h 08m
Waning Gibbous, 88% of the Moon is Illuminated
Sep 22
Waning Gibbous
Sep 26
Last Quarter
Oct 4
New
Oct 11
First Quarter
Oct 18
Full

Hourly Weather History & Observations

Time (CDT) Temp. Heat Index Dew Point Humidity Pressure Visibility Wind Dir Wind Speed Gust Speed Precip Events Conditions
12:53 AM 59.0 °F - 50.0 °F 72% 29.75 in 10.0 mi South 9.2 mph - N/A   Clear
1:53 AM 60.1 °F - 50.0 °F 69% 29.74 in 10.0 mi South 8.1 mph - N/A   Clear
2:53 AM 59.0 °F - 50.0 °F 72% 29.73 in 10.0 mi South 8.1 mph - N/A   Clear
3:53 AM 57.0 °F - 48.9 °F 74% 29.73 in 10.0 mi SE 3.5 mph - N/A   Clear
4:53 AM 57.0 °F - 48.9 °F 74% 29.72 in 10.0 mi SSE 5.8 mph - N/A   Clear
5:53 AM 55.0 °F - 48.0 °F 77% 29.73 in 10.0 mi SSE 6.9 mph - N/A   Clear
6:53 AM 54.0 °F - 46.9 °F 77% 29.73 in 10.0 mi South 6.9 mph - N/A   Clear
7:53 AM 52.0 °F - 46.0 °F 80% 29.75 in 10.0 mi ESE 5.8 mph - N/A   Clear
8:53 AM 57.9 °F - 46.9 °F 67% 29.75 in 10.0 mi South 8.1 mph - N/A   Clear
9:53 AM 63.0 °F - 48.0 °F 58% 29.75 in 10.0 mi South 13.8 mph 20.7 mph N/A   Clear
10:53 AM 69.1 °F - 52.0 °F 54% 29.73 in 10.0 mi South 12.7 mph 23.0 mph N/A   Clear
11:53 AM 73.9 °F - 54.0 °F 50% 29.71 in 10.0 mi SSE 16.1 mph 25.3 mph N/A   Clear
12:53 PM 77.0 °F - 55.0 °F 47% 29.70 in 10.0 mi SSE 23.0 mph 28.8 mph N/A   Clear
1:53 PM 79.0 °F - 55.0 °F 44% 29.67 in 10.0 mi SSE 19.6 mph 27.6 mph N/A   Clear
2:53 PM 82.0 °F 81.4 °F 55.0 °F 39% 29.64 in 10.0 mi South 16.1 mph 34.5 mph N/A   Clear
3:53 PM 81.0 °F - 52.0 °F 36% 29.63 in 10.0 mi South 21.9 mph 36.8 mph N/A   Clear
4:53 PM 80.1 °F - 52.0 °F 38% 29.62 in 10.0 mi SSE 24.2 mph 33.4 mph N/A   Clear
5:53 PM 79.0 °F - 51.1 °F 38% 29.62 in 10.0 mi SSE 23.0 mph 35.7 mph N/A   Clear
6:53 PM 75.9 °F - 51.1 °F 42% 29.63 in 10.0 mi SSE 20.7 mph 35.7 mph N/A   Clear
7:53 PM 72.0 °F - 51.1 °F 48% 29.64 in 10.0 mi SSE 17.3 mph 21.9 mph N/A   Clear
8:53 PM 69.1 °F - 51.1 °F 53% 29.63 in 10.0 mi SSE 16.1 mph 23.0 mph N/A   Clear
9:53 PM 68.0 °F - 51.1 °F 55% 29.64 in 10.0 mi SSE 13.8 mph 25.3 mph N/A   Clear
10:53 PM 64.9 °F - 51.1 °F 61% 29.65 in 10.0 mi SSE 11.5 mph 25.3 mph N/A   Clear
11:53 PM 63.0 °F - 50.0 °F 63% 29.65 in 10.0 mi SSE 13.8 mph 24.2 mph N/A   Clear